Weather History for KDSM - April, 2013

Change the Weather History Date:

Tuesday, April 23, 2013

  Actual Average Record
Temperature  
Mean Temperature 39 °F 55 °F  
Max Temperature 45 °F 65 °F 85 °F (1990)
Min Temperature 33 °F 44 °F 25 °F (1956)
Degree Days  
Heating Degree Days 26 11  
Month to date heating degree days 439 344  
Since 1 July heating degree days 5768 5971  
Cooling Degree Days 0 1  
Month to date cooling degree days 0 6  
Year to date cooling degree days 0 7  
Moisture  
Dew Point 28 °F    
Average Humidity 66    
Maximum Humidity 85    
Minimum Humidity 46    
Precipitation  
Precipitation T in 0.14 in 2.95 in (1897)
Month to date precipitation 6.53 2.76  
Year to date precipitation 11.05 7.34  
Snow  
Snow T in 0.10 in 0.90 in (1967)
Month to date snowfall T 1.7  
Since 1 July snowfall 48.3 35.2  
Snow Depth 0.00 in    
Sea Level Pressure  
Sea Level Pressure 30.12 in    
Wind  
Wind Speed 15 mph (North)    
Max Wind Speed 24 mph    
Max Gust Speed 33 mph    
Visibility 10 miles    
Events Rain , Snow    
T = Trace of Precipitation, MM = Missing Value Source: NWS Daily Summary

Daily Weather History Graph

Daily Weather History Graph

Search for Another Location

Airport or City:

Trip Planner

Search our weather history database for the weather conditions in past years. The results will help you decide how hot, cold, wet, or windy it might be!

Date:

Astronomy

Apr. 23, 2013 Rise Set
Actual Time 6:22 AM CDT 8:04 PM CDT
Civil Twilight 5:52 AM CDT 8:33 PM CDT
Nautical Twilight 5:17 AM CDT 9:09 PM CDT
Astronomical Twilight 4:39 AM CDT 9:47 PM CDT
Moon 5:58 PM CDT (4/23) 4:52 AM CDT (4/23)
Length of Visible Light 14h 40m
Length of Day
13h 41m
Waxing Gibbous, 94% of the Moon is Illuminated
Apr 23
Waxing Gibbous
Apr 25
Full
May 2
Last Quarter
May 9
New
May 17
First Quarter

Hourly Weather History & Observations

Time (CDT) Temp. Windchill Dew Point Humidity Pressure Visibility Wind Dir Wind Speed Gust Speed Precip Events Conditions
12:54 AM 37.0 °F 27.4 °F 33.1 °F 86% 30.10 in 10.0 mi NNW 17.3 mph 24.2 mph N/A   Overcast
1:09 AM 37.0 °F 27.0 °F 32.0 °F 82% 30.11 in 10.0 mi North 18.4 mph 25.3 mph N/A   Overcast
1:33 AM 37.0 °F 28.1 °F 32.0 °F 82% 30.12 in 10.0 mi NNW 15.0 mph 28.8 mph 0.00 in Rain Light Ice Pellets
1:42 AM 37.0 °F 28.1 °F 32.0 °F 82% 30.12 in 10.0 mi NNW 15.0 mph 26.5 mph 0.00 in Rain Light Rain
1:46 AM 36.0 °F 26.0 °F 32.0 °F 86% 30.12 in 10.0 mi NNW 17.3 mph 26.5 mph 0.00 in Rain Light Ice Pellets
1:54 AM 36.0 °F 26.3 °F 32.0 °F 86% 30.11 in 10.0 mi NNW 16.1 mph - 0.00 in Rain Light Ice Pellets
2:12 AM 36.0 °F 25.3 °F 30.9 °F 82% 30.08 in 10.0 mi North 19.6 mph 27.6 mph 0.00 in Rain Light Rain
2:29 AM 36.0 °F 24.2 °F 30.9 °F 82% 30.08 in 10.0 mi NNW 24.2 mph 29.9 mph 0.00 in Rain Light Rain
2:54 AM 36.0 °F 25.6 °F 30.9 °F 82% 30.11 in 10.0 mi NNW 18.4 mph 29.9 mph 0.00 in Snow Light Snow
3:54 AM 35.1 °F 24.8 °F 30.0 °F 82% 30.11 in 10.0 mi North 17.3 mph 25.3 mph 0.00 in Rain , Snow Light Snow
4:54 AM 35.1 °F 24.8 °F 30.0 °F 82% 30.13 in 8.0 mi North 17.3 mph 28.8 mph 0.00 in Snow Light Snow
5:54 AM 35.1 °F 24.1 °F 28.9 °F 78% 30.13 in 10.0 mi NNW 19.6 mph 27.6 mph 0.00 in   Overcast
6:54 AM 34.0 °F 24.2 °F 28.0 °F 79% 30.12 in 10.0 mi North 15.0 mph 26.5 mph 0.00 in   Overcast
7:54 AM 34.0 °F 24.2 °F 28.0 °F 79% 30.15 in 10.0 mi North 15.0 mph 20.7 mph N/A   Overcast
8:54 AM 34.0 °F 23.8 °F 28.0 °F 79% 30.16 in 10.0 mi North 16.1 mph 23.0 mph N/A   Overcast
9:46 AM 35.1 °F 24.8 °F 28.0 °F 76% 30.13 in 10.0 mi North 17.3 mph 24.2 mph N/A   Overcast
9:54 AM 34.0 °F 23.4 °F 27.0 °F 75% 30.15 in 10.0 mi NNW 17.3 mph - N/A   Overcast
10:39 AM 35.1 °F 25.2 °F 27.0 °F 72% 30.14 in 10.0 mi North 16.1 mph 20.7 mph N/A   Overcast
10:54 AM 35.1 °F 25.2 °F 27.0 °F 72% 30.17 in 10.0 mi North 16.1 mph - N/A   Overcast
11:54 AM 37.9 °F 28.5 °F 28.0 °F 68% 30.14 in 10.0 mi North 17.3 mph 25.3 mph N/A   Overcast
12:20 PM 37.9 °F 28.9 °F 28.0 °F 68% 30.12 in 10.0 mi North 16.1 mph 25.3 mph N/A   Overcast
12:54 PM 39.0 °F 30.6 °F 28.0 °F 65% 30.14 in 10.0 mi North 15.0 mph 26.5 mph N/A   Overcast
1:54 PM 39.9 °F 31.8 °F 28.0 °F 63% 30.13 in 10.0 mi North 15.0 mph - N/A   Overcast
2:54 PM 42.1 °F 34.5 °F 28.0 °F 58% 30.12 in 10.0 mi North 15.0 mph - N/A   Overcast
3:54 PM 43.0 °F 36.0 °F 27.0 °F 53% 30.10 in 10.0 mi North 13.8 mph - N/A   Overcast
4:54 PM 43.0 °F 36.0 °F 26.1 °F 51% 30.10 in 10.0 mi North 13.8 mph - N/A   Overcast
5:54 PM 43.0 °F 35.7 °F 24.1 °F 47% 30.09 in 10.0 mi North 15.0 mph 27.6 mph N/A   Overcast
6:54 PM 41.0 °F 32.5 °F 23.0 °F 49% 30.10 in 10.0 mi North 17.3 mph - N/A   Overcast
7:54 PM 39.9 °F 32.9 °F 24.1 °F 53% 30.11 in 10.0 mi North 11.5 mph - N/A   Overcast
8:54 PM 39.0 °F 30.6 °F 24.1 °F 55% 30.13 in 10.0 mi North 15.0 mph - N/A   Overcast
9:54 PM 37.0 °F 28.9 °F 23.0 °F 57% 30.15 in 10.0 mi North 12.7 mph - N/A   Overcast
10:54 PM 36.0 °F 29.0 °F 19.9 °F 52% 30.17 in 10.0 mi North 9.2 mph - N/A   Overcast
11:54 PM 34.0 °F 27.2 °F 19.9 °F 56% 30.16 in 10.0 mi NNW 8.1 mph - N/A   Overcast